TimeEDT,TemperatureF,Dew PointF,Humidity,Sea Level PressureIn,VisibilityMPH,Wind Direction,Wind SpeedMPH,Gust SpeedMPH,PrecipitationIn,Events,Conditions,WindDirDegrees,DateUTC
12:53 AM,77.0,75.9,96,30.02,10.0,Calm,Calm,-,0.01,Rain,Light Rain,0,2013-08-23 04:53:00
1:53 AM,77.0,75.9,96,30.00,10.0,ENE,6.9,-,0.00,,Clear,60,2013-08-23 05:53:00
2:53 AM,77.0,75.0,94,30.00,10.0,Calm,Calm,-,N/A,,Clear,0,2013-08-23 06:53:00
3:53 AM,75.9,75.0,97,29.98,10.0,Calm,Calm,-,N/A,,Clear,0,2013-08-23 07:53:00
4:53 AM,75.9,75.0,97,29.98,10.0,NNE,3.5,-,0.01,,Clear,20,2013-08-23 08:53:00
5:53 AM,75.0,73.9,96,29.99,9.0,Calm,Calm,-,N/A,,Clear,0,2013-08-23 09:53:00
6:53 AM,75.0,75.0,100,29.99,8.0,Calm,Calm,-,N/A,,Clear,0,2013-08-23 10:53:00
7:53 AM,75.9,75.0,97,30.01,7.0,NE,4.6,-,N/A,,Clear,40,2013-08-23 11:53:00
8:53 AM,80.1,77.0,90,30.02,10.0,East,5.8,-,N/A,,Clear,100,2013-08-23 12:53:00
9:53 AM,84.0,77.0,79,30.03,10.0,East,6.9,-,N/A,,Clear,100,2013-08-23 13:53:00
10:53 AM,87.1,75.9,69,30.04,10.0,ESE,6.9,-,N/A,,Scattered Clouds,110,2013-08-23 14:53:00
11:53 AM,87.1,75.0,67,30.04,10.0,Variable,3.5,-,N/A,,Mostly Cloudy,0,2013-08-23 15:53:00
12:01 PM,87.8,73.4,62,30.03,10.0,ESE,4.6,-,N/A,,Scattered Clouds,110,2013-08-23 16:01:00
12:53 PM,91.0,75.0,59,30.02,10.0,ENE,8.1,-,N/A,,Partly Cloudy,60,2013-08-23 16:53:00
1:53 PM,91.9,71.1,50,30.00,10.0,Calm,Calm,-,N/A,,Partly Cloudy,0,2013-08-23 17:53:00
2:53 PM,90.0,72.0,55,29.99,10.0,ENE,8.1,-,N/A,,Overcast,70,2013-08-23 18:53:00
3:53 PM,93.0,72.0,50,29.96,10.0,ESE,5.8,-,N/A,,Scattered Clouds,110,2013-08-23 19:53:00
4:42 PM,80.6,75.2,84,29.98,10.0,South,13.8,21.9,0.00,Rain,Light Rain,190,2013-08-23 20:42:00
4:53 PM,79.0,72.0,79,29.98,10.0,South,10.4,-,0.00,Rain,Light Rain,180,2013-08-23 20:53:00
5:53 PM,78.1,75.9,93,30.00,10.0,West,4.6,-,0.03,Rain,Light Rain,280,2013-08-23 21:53:00
6:53 PM,78.1,73.9,87,30.00,10.0,Calm,Calm,-,0.01,,Clear,0,2013-08-23 22:53:00
7:53 PM,79.0,75.0,88,30.01,10.0,Calm,Calm,-,N/A,,Mostly Cloudy,0,2013-08-23 23:53:00
8:53 PM,78.1,75.9,93,30.03,10.0,NNE,5.8,-,N/A,,Partly Cloudy,30,2013-08-24 00:53:00
9:53 PM,78.1,75.9,93,30.03,10.0,East,4.6,-,N/A,,Clear,90,2013-08-24 01:53:00
10:53 PM,77.0,75.0,94,30.04,10.0,NE,4.6,-,N/A,,Clear,40,2013-08-24 02:53:00
11:53 PM,77.0,75.0,94,30.04,10.0,Calm,Calm,-,N/A,,Clear,0,2013-08-24 03:53:00